Tracking 17636 objects as of 29-April-2016
HD Live streaming from Space Station
objects crossing your sky now

PSLV DEB

Track PSLV DEB now!
10-day predictions


NORAD ID: 27114
Int'l Code: 2001-049BJ
Perigee: 427.4 km
Apogee: 435.9 km
Inclination: 97.8 °
Period: 93.1 minutes
Semi major axis: 6802 km
RCS: 0.0473 m2 (small)
Launch date: October 22, 2001
Source: India (IND)
Launch site: SIRHARIKOTA (SRI)

Note: This is SATELLITE DEBRIS
Your satellite tracking list
Your tracking list is empty





NASA's NSSDC Master Catalog

Two Line Element Set (TLE):
1 27114U 01049BJ  16119.74051414  .00034360  00000-0  67222-3 0  9991
2 27114  97.8370 122.2175 0006281 277.5155  82.5380 15.47335915781218
Source of the keplerian elements: AFSPC

N2YO: 336